Mankato, MN

2:07 AM CST on December 08, 2019 (GMT -0600)
Mankato Regional

Weather History for KMKT - June, 2019

Change the Weather History Date:

Saturday, June 1, 2019

  Actual Average Record
Temperature  
Mean Temperature 66 °F -  
Max Temperature 73 °F 69 °F 86 °F (2002)
Min Temperature 57 °F 52 °F 46 °F (1998)
Cooling Degree Days 1    
Growing Degree Days 16 (Base 50)    
Moisture  
Dew Point 51 °F    
Average Humidity 63    
Maximum Humidity 90    
Minimum Humidity 32    
Precipitation  
Precipitation 0.06 in - - ()
Sea Level Pressure  
Sea Level Pressure 29.86 in    
Wind  
Wind Speed 12 mph (NNW)    
Max Wind Speed 22 mph    
Max Gust Speed 26 mph    
Visibility 10 miles    
Events Rain , Thunderstorm    
Averages and records for this station are not official NWS values.
T = Trace of Precipitation, MM = Missing Value Source: NWS Daily Summary

Daily Weather History Graph

Daily Weather History Graph

Search for Another Location

Airport or City:

Astronomy

Jun. 01, 2019 Rise Set
Actual Time 5:35 AM CDT 8:52 PM CDT
Civil Twilight 4:59 AM CDT 9:27 PM CDT
Nautical Twilight 4:13 AM CDT 10:14 PM CDT
Astronomical Twilight 3:16 AM CDT 11:11 PM CDT
Moon 4:47 AM CDT (6/1) 7:01 PM CDT (6/1)
Length of Visible Light 16h 28m
Length of Day
15h 17m
Waning Crescent, 4% of the Moon is Illuminated
Jun 1
Waning Crescent
Jun 3
New
Jun 10
First Quarter
Jun 17
Full
Jun 25
Last Quarter

Hourly Weather History & Observations

Time (CDT) Temp. Dew Point Humidity Pressure Visibility Wind Dir Wind Speed Gust Speed Precip Events Conditions
12:56 AM 72.0 °F 57.0 °F 59% 29.76 in 10.0 mi WNW 11.5 mph - N/A   Clear
1:56 AM 68.0 °F 55.9 °F 65% 29.76 in 10.0 mi North 9.2 mph - N/A   Clear
2:56 AM 64.9 °F 55.9 °F 73% 29.83 in 10.0 mi West 21.9 mph 26.5 mph 0.00 in Rain Light Rain
3:10 AM 64.4 °F 57.2 °F 77% 29.82 in 10.0 mi NNW 13.8 mph - 0.00 in Rain , Thunderstorm Light Rain
3:25 AM 64.4 °F 57.2 °F 77% 29.80 in 10.0 mi North 21.9 mph 25.3 mph 0.00 in Rain , Thunderstorm Light Rain
3:56 AM 61.0 °F 55.9 °F 83% 29.79 in 10.0 mi North 15.0 mph - 0.06 in Rain , Thunderstorm Light Thunderstorms and Rain
4:09 AM 60.8 °F 55.4 °F 82% 29.80 in 10.0 mi North 12.7 mph - 0.00 in   Partly Cloudy
4:56 AM 60.1 °F 55.9 °F 86% 29.80 in 10.0 mi ESE 5.8 mph - 0.00 in   Mostly Cloudy
5:56 AM 59.0 °F 55.0 °F 87% 29.78 in 10.0 mi ESE 6.9 mph - N/A   Partly Cloudy
6:56 AM 59.0 °F 55.9 °F 90% 29.83 in 10.0 mi West 11.5 mph - N/A   Clear
7:56 AM 61.0 °F 55.9 °F 83% 29.83 in 10.0 mi NW 5.8 mph - N/A   Scattered Clouds
8:56 AM 61.0 °F 57.0 °F 87% 29.85 in 10.0 mi NNW 12.7 mph - N/A   Partly Cloudy
9:46 AM 62.6 °F 55.4 °F 77% 29.88 in 10.0 mi North 10.4 mph - N/A   Mostly Cloudy
9:56 AM 62.1 °F 55.9 °F 80% 29.87 in 10.0 mi North 10.4 mph - N/A   Overcast
10:04 AM 62.6 °F 55.4 °F 77% 29.88 in 10.0 mi North 11.5 mph - N/A   Overcast
10:37 AM 62.6 °F 51.8 °F 68% 29.88 in 10.0 mi NNE 10.4 mph - N/A   Partly Cloudy
10:56 AM 64.0 °F 53.1 °F 67% 29.88 in 10.0 mi North 9.2 mph - N/A   Clear
11:56 AM 64.9 °F 50.0 °F 58% 29.89 in 10.0 mi North 11.5 mph - N/A   Clear
12:56 PM 66.9 °F 48.0 °F 51% 29.88 in 10.0 mi North 13.8 mph 19.6 mph N/A   Clear
1:56 PM 68.0 °F 48.0 °F 49% 29.89 in 10.0 mi North 13.8 mph - N/A   Clear
2:56 PM 70.0 °F 48.9 °F 47% 29.88 in 10.0 mi North 11.5 mph 17.3 mph N/A   Clear
3:56 PM 72.0 °F 46.9 °F 41% 29.87 in 10.0 mi NW 13.8 mph - N/A   Scattered Clouds
4:56 PM 73.0 °F 44.1 °F 35% 29.86 in 10.0 mi NW 13.8 mph 23.0 mph N/A   Clear
5:56 PM 72.0 °F 44.1 °F 37% 29.87 in 10.0 mi NNW 15.0 mph 21.9 mph N/A   Clear
6:56 PM 71.1 °F 39.9 °F 32% 29.87 in 10.0 mi NNW 15.0 mph - N/A   Clear
7:56 PM 68.0 °F 37.0 °F 32% 29.89 in 10.0 mi NNW 15.0 mph 23.0 mph N/A   Clear
8:56 PM 64.0 °F 41.0 °F 43% 29.90 in 10.0 mi NNW 8.1 mph - N/A   Clear
9:56 PM 62.1 °F 39.9 °F 44% 29.93 in 10.0 mi NW 8.1 mph - N/A   Clear
10:56 PM 60.1 °F 42.1 °F 51% 29.95 in 10.0 mi North 10.4 mph - N/A   Clear
11:56 PM 57.9 °F 39.9 °F 51% 29.97 in 10.0 mi North 6.9 mph - N/A   Clear